{"data":{"norad_id":59308,"epoch":"2026-09-21T05:03:24.744384Z","epoch_age_seconds":100839,"freshness":"FRESH","line1":"1 59308U 24056N   26264.21070306 -.00000510  00000+0 -90249-5 0  9997","line2":"2 59308  43.0020 206.7676 0000917 272.9328  87.1419 15.27572335141051","mean_motion":15.27572335,"eccentricity":9.17e-5,"inclination_deg":43.002,"raan_deg":206.7676,"arg_perigee_deg":272.9328,"mean_anomaly_deg":87.1419,"bstar":-9.0249e-6,"rev_number":14105,"period_min":94.267221722106,"perigee_km":482.4428750334,"apogee_km":483.70122077279,"semimajor_km":6861.2090479031,"source":"CELESTRAK","updated_at":"2026-09-22T09:00:48.895489Z"}}